Location: Pic du Midi - T1M
(42.9366°N, 0.1426°E)
Time: 09:34:00
(UTC+01:00)

X-37B - Pass Details

Date: 23 June 2021
Orbit: 383 x 392 km, 45.0° (Epoch: 01 July)

Event Time Altitude Azimuth Distance (km) Brightness Sun altitude
Rises 21:28:08 0° 217° (SW) 2,237 4.4 -7.4°
Reaches altitude 10° 21:30:26 10° 202° (SSW) 1,387 3.2 -7.8°
Maximum altitude 21:32:58 23° 148° (SSE) 866 1.8 -8.1°
Drops below altitude 10° 21:35:31 10° 93° (E) 1,393 2.9 -8.4°
Enters shadow 21:37:37 - 79° (E) 2,168 4.0 -8.7°
